Other Surface Observations
Issued by NWS Charleston, SC

Home | Current Version | Previous Version | Text Only | Print | Product List | Glossary On
Versions: 1 2 3 4 5 6 7 8 9 10 11 12 13 14 15 16 17 18 19 20 21 22 23 24 25 26 27 28 29 30 31 32 33 34 35 36 37 38 39 40 41 42 43 44 45 46 47 48 49 50
000
SXUS52 KCHS 191625
OSOCHS

MARINE OBSERVATIONS
NATIONAL WEATHER SERVICE CHARLESTON SC
1200 PM EDT FRI SEP 19 2014

...DOWNTOWN CHARLESTON AND HARBOR...

CITY           SKY/WX    TMP DP  RH WIND       PRES   REMARKS
WATERFRONT PRK   N/A     79 N/A N/A E21         N/A
FORT JOHNSON   NOT AVBL

...LAKE MOULTRIE...

CITY           SKY/WX    TMP DP  RH WIND       PRES   REMARKS
PINOPOLIS        N/A     79  70  73 E6        30.01F

...LAKE AND SUPPLEMENTAL COASTAL OBSERVATIONS...

STATION/POSITION TIME  TEMP    WIND        PRES    WAVE   SWELL
                       AIR SEA DIR/SP/G            HT/PER HT/PER/DIR
                 (UTC) (F)     (DEG/KT/KT) (MB)    (FT/S) (FT/S/D)
FORT PULASKI     1600   80      50/ 12/ 15 1017.7R
SAPELO ISLAND    1600   84      60/  7     1018.0R
UPR LAKE MARION  NOT AVBL
WINYAH BAY       1600   80      80/ 13     1019.0R
LAKE MURRAY      1500   69      40/  1/  3 1020.0R
ACE BASIN NERRS  1600   80      60/  6     1018.0S


...C-MAN AND BUOY OBSERVATIONS...

STATION/POSITION TIME  TEMP    WIND        PRES    WAVE   SWELL
                       AIR SEA DIR/SP/G            HT/PER HT/PER/DIR
                 (UTC) (F)     (DEG/KT/KT) (MB)    (FT/S) (FT/S/D)
BUOY 41004       1600   73 82   80/ 16/ 19 1018.0R   5/ 6   2/ 8
BUOY 41008       1600   81 84   70/ 10/ 12 1016.8R   2/ 8   2/100/ 8
FOLLY BEACH CMAN 1600   78      80/ 19/ 22 1018.8S
CAPERS NS BUOY   1500   77     110/ 17/ 21   N/A
FRIPP NS BUOY    NOT AVBL
5E ST. MARYS GA  1600      84                N/A     2/10   2/110/11
FRYING PAN BUOY  NOT AVBL
BUOY 41025       1600   78      50/ 17/ 23 1020.9R   6/ 7
CAPE LOOKOUT NC  1600   77      50/ 22/ 25 1020.7R
BUOY 41002       1515   79 82   70/ 16/ 17 1018.8R   4/10   2/110/10
BUOY 41010       1600   83 85   70/ 12/ 14 1015.4F   3/12   3/ 40/12
BUOY 41012       NOT AVBL
ST AUGUSTINE FL  1600   82      80/  8/  9 1016.9R


$$



USA.gov is the U.S. government's official web portal to all federal, state and local government web resources and services.